Find Starlink 35240

NORAD ID: 65655 Int'l Des: 2025-211 Owner: SPXS Country: US Constellation: starlink operational
LEOCIRCULARRETROGRADESSO

Current View

Loading 3D Globe...

About Starlink 35240

Description loading...

Upcoming Passes

Passes for default location (London). Set your location on the main map for personalized predictions.

Altitude History

Loading altitude history...

Two-Line Element Set

1 65655U 25211D 26151.06415356 .00009911 00000-0 68974-3 0 9990
2 65655 97.4230 194.7148 0002124 136.5591 223.5804 15.05662235 39435
Epoch: May 31, 2026 • Age: 12 hours

Current Status

Altitude 559.5 km
Velocity 7.59 km/s
Sub-Earth Point 66.12°N, 54.91°W
Launch Date Sep 19, 2025
Age 0.6 years
Type internet

Technical Details

Classification Payload
Mass 575.00 kg
Dry Mass 530.00 kg
Total Mass 575.00 kg
Length 0.30 m
Diameter 4.10 m
Span 29.00 m
Shape Box + pan
Manufacturer SPXS
Bus Type Starlink V2MO
Phase Status In Orbit
Owner/State SPXS/US

Most Searched